�������l�o���
Date,Time,MP-1(��Sv/h),MP-2(��Sv/h),MP-3(��Sv/h),MP-4(��Sv/h),MP-5(��Sv/h),MP-6(��Sv/h),MP-7(��Sv/h),MP-8(��Sv/h),����,����(m/s),���J
2019/01/20,00:00,0.794,1.181,0.828,1.518,1.084,0.451,0.800,0.756,-,CALM,��
2019/01/20,00:10,0.794,1.181,0.827,1.517,1.084,0.452,0.801,0.758,-,CALM,��
2019/01/20,00:20,0.792,1.179,0.827,1.518,1.085,0.451,0.801,0.756,-,CALM,��
2019/01/20,00:30,0.794,1.180,0.828,1.520,1.085,0.453,0.800,0.758,�쓌,0.6,��
2019/01/20,00:40,0.791,1.178,0.828,1.516,1.084,0.452,0.801,0.757,���쐼,0.9,��
2019/01/20,00:50,0.792,1.179,0.827,1.519,1.086,0.452,0.799,0.756,�쐼,1.2,��
2019/01/20,01:00,0.792,1.180,0.828,1.518,1.084,0.452,0.799,0.756,��쓌,1.4,��
2019/01/20,01:10,0.793,1.178,0.828,1.520,1.086,0.452,0.799,0.757,��,1.7,��
2019/01/20,01:20,0.793,1.180,0.827,1.520,1.085,0.451,0.799,0.758,��,1.4,��
2019/01/20,01:30,0.794,1.181,0.827,1.517,1.084,0.453,0.802,0.756,�쐼,0.9,��
2019/01/20,01:40,0.790,1.180,0.828,1.519,1.084,0.453,0.798,0.757,��,1.7,��
2019/01/20,01:50,0.792,1.179,0.827,1.517,1.087,0.453,0.800,0.757,��,4.8,��
2019/01/20,02:00,0.794,1.180,0.828,1.518,1.084,0.453,0.801,0.756,��,7.1,��
2019/01/20,02:10,0.791,1.180,0.827,1.518,1.086,0.452,0.800,0.756,��,6.2,��
2019/01/20,02:20,0.792,1.179,0.826,1.519,1.083,0.451,0.800,0.757,��,5.9,��
2019/01/20,02:30,0.794,1.180,0.828,1.517,1.086,0.453,0.802,0.756,���쐼,4.7,��
2019/01/20,02:40,0.795,1.181,0.828,1.518,1.084,0.453,0.801,0.757,���쐼,4.2,��
2019/01/20,02:50,0.792,1.179,0.828,1.518,1.084,0.452,0.800,0.759,���쐼,3.9,��
2019/01/20,03:00,0.791,1.177,0.828,1.519,1.084,0.453,0.799,0.758,���쐼,4.1,��
2019/01/20,03:10,0.793,1.179,0.825,1.516,1.085,0.453,0.803,0.758,�쐼,5.0,��
2019/01/20,03:20,0.793,1.179,0.826,1.518,1.085,0.452,0.801,0.757,���쐼,4.9,��
2019/01/20,03:30,0.793,1.179,0.827,1.518,1.085,0.453,0.801,0.757,�쐼,5.4,��
2019/01/20,03:40,0.794,1.179,0.828,1.517,1.084,0.455,0.801,0.757,�쐼,5.5,��
2019/01/20,03:50,0.793,1.178,0.828,1.515,1.084,0.452,0.801,0.756,��쐼,5.9,��
2019/01/20,04:00,0.792,1.178,0.827,1.519,1.086,0.452,0.801,0.758,��쐼,6.0,��
2019/01/20,04:10,0.792,1.179,0.828,1.521,1.084,0.453,0.799,0.757,��쐼,5.6,��
2019/01/20,04:20,0.793,1.179,0.828,1.519,1.086,0.451,0.801,0.756,��쐼,5.6,��
2019/01/20,04:30,0.794,1.178,0.826,1.517,1.085,0.453,0.799,0.757,��쐼,5.7,��
2019/01/20,04:40,0.794,1.180,0.829,1.516,1.083,0.452,0.802,0.757,��쐼,6.1,��
2019/01/20,04:50,0.793,1.180,0.825,1.516,1.086,0.452,0.800,0.758,��쐼,6.6,��
2019/01/20,05:00,0.791,1.180,0.829,1.517,1.084,0.455,0.801,0.757,��쐼,7.0,��
2019/01/20,05:10,0.792,1.177,0.829,1.516,1.085,0.452,0.800,0.758,��쐼,7.4,��
2019/01/20,05:20,0.794,1.180,0.830,1.519,1.084,0.453,0.803,0.759,��쐼,7.6,��
2019/01/20,05:30,0.794,1.180,0.828,1.520,1.085,0.453,0.801,0.757,��쐼,7.4,��
2019/01/20,05:40,0.794,1.178,0.829,1.519,1.084,0.452,0.803,0.759,��쐼,8.2,��
2019/01/20,05:50,0.794,1.180,0.830,1.522,1.084,0.452,0.802,0.758,��쐼,8.3,��
2019/01/20,06:00,0.794,1.180,0.829,1.519,1.086,0.454,0.802,0.758,��쐼,7.6,��
2019/01/20,06:10,0.792,1.178,0.829,1.519,1.085,0.454,0.802,0.757,��쐼,7.0,��
2019/01/20,06:20,0.794,1.178,0.830,1.519,1.085,0.454,0.801,0.758,��쐼,7.2,��
2019/01/20,06:30,0.794,1.180,0.832,1.518,1.088,0.453,0.802,0.759,��쐼,6.6,��
2019/01/20,06:40,0.795,1.181,0.830,1.520,1.083,0.454,0.801,0.758,��쐼,7.0,��
2019/01/20,06:50,0.794,1.179,0.830,1.518,1.086,0.455,0.803,0.759,��쐼,6.7,��
2019/01/20,07:00,0.796,1.180,0.830,1.521,1.086,0.454,0.803,0.758,��쐼,6.5,��
2019/01/20,07:10,0.794,1.179,0.830,1.519,1.086,0.453,0.803,0.759,��쐼,7.1,��
2019/01/20,07:20,0.793,1.180,0.831,1.518,1.085,0.453,0.803,0.758,�쐼,7.4,��
2019/01/20,07:30,0.795,1.179,0.829,1.520,1.084,0.452,0.804,0.759,�쐼,6.8,��
2019/01/20,07:40,0.795,1.178,0.832,1.519,1.085,0.454,0.802,0.759,��쐼,6.7,��
2019/01/20,07:50,0.795,1.180,0.830,1.520,1.086,0.452,0.803,0.759,��쐼,8.0,��
2019/01/20,08:00,0.797,1.178,0.830,1.519,1.085,0.455,0.802,0.757,��쐼,8.2,��
2019/01/20,08:10,0.796,1.178,0.829,1.520,1.085,0.454,0.803,0.758,��쐼,9.0,��
2019/01/20,08:20,0.797,1.181,0.831,1.520,1.086,0.455,0.805,0.757,��쐼,8.4,��
2019/01/20,08:30,0.796,1.180,0.831,1.521,1.086,0.454,0.803,0.758,��쐼,8.1,��
2019/01/20,08:40,0.796,1.178,0.829,1.520,1.089,0.454,0.804,0.759,��쐼,9.0,��
2019/01/20,08:50,0.795,1.180,0.832,1.523,1.088,0.456,0.803,0.759,��쐼,9.0,��
2019/01/20,09:00,0.796,1.178,0.831,1.518,1.088,0.455,0.803,0.758,��쐼,8.4,��
2019/01/20,09:10,0.796,1.182,0.831,1.521,1.089,0.455,0.806,0.760,��쐼,6.5,��
2019/01/20,09:20,0.796,1.180,0.832,1.517,1.087,0.456,0.806,0.758,��쐼,6.8,��
2019/01/20,09:30,0.799,1.183,0.833,1.520,1.087,0.456,0.806,0.761,��쐼,5.4,��
2019/01/20,09:40,0.798,1.180,0.832,1.522,1.088,0.456,0.805,0.759,��,6.5,��
2019/01/20,09:50,0.800,1.180,0.832,1.525,1.088,0.456,0.802,0.759,��쐼,6.1,��
2019/01/20,10:00,0.798,1.182,0.833,1.522,1.087,0.456,0.804,0.759,��쐼,7.2,��
2019/01/20,10:10,0.798,1.179,0.830,1.521,1.087,0.457,0.804,0.761,��쐼,6.9,��
2019/01/20,10:20,0.800,1.182,0.832,1.518,1.086,0.458,0.803,0.760,��쐼,6.0,��
2019/01/20,10:30,0.798,1.178,0.832,1.524,1.087,0.457,0.804,0.761,��쐼,7.4,��
2019/01/20,10:40,0.798,1.179,0.834,1.522,1.088,0.457,0.804,0.760,��쐼,7.0,��
2019/01/20,10:50,0.801,1.179,0.835,1.520,1.089,0.458,0.802,0.761,��쐼,5.9,��
2019/01/20,11:00,0.800,1.177,0.833,1.521,1.091,0.457,0.804,0.761,�쐼,5.6,��
2019/01/20,11:10,0.800,1.177,0.834,1.520,1.089,0.458,0.803,0.761,�쐼,5.4,��
2019/01/20,11:20,0.800,1.182,0.833,1.521,1.090,0.457,0.803,0.762,��쐼,5.0,��
2019/01/20,11:30,0.799,1.182,0.833,1.523,1.090,0.458,0.804,0.761,��쐼,6.7,��
2019/01/20,11:40,0.798,1.180,0.834,1.524,1.090,0.458,0.805,0.762,��,5.8,��
2019/01/20,11:50,0.799,1.179,0.833,1.525,1.088,0.458,0.806,0.761,��,6.5,��
2019/01/20,12:00,0.796,1.178,0.834,1.523,1.089,0.457,0.804,0.763,��,4.8,��
2019/01/20,12:10,0.799,1.180,0.835,1.520,1.089,0.458,0.806,0.762,��,3.3,��
2019/01/20,12:20,0.798,1.181,0.834,1.521,1.090,0.459,0.803,0.761,��쓌,5.6,��
2019/01/20,12:30,0.799,1.182,0.834,1.525,1.091,0.458,0.803,0.761,��,4.9,��
2019/01/20,12:40,0.800,1.181,0.835,1.522,1.091,0.458,0.808,0.762,��쓌,5.6,��
2019/01/20,12:50,0.800,1.180,0.833,1.521,1.089,0.460,0.804,0.762,��쓌,5.8,��
2019/01/20,13:00,0.800,1.181,0.834,1.524,1.088,0.459,0.808,0.762,��쓌,5.8,��
2019/01/20,13:10,0.801,1.182,0.834,1.523,1.088,0.458,0.807,0.761,��쓌,5.5,��
2019/01/20,13:20,0.799,1.182,0.834,1.523,1.088,0.458,0.806,0.761,�k�k��,4.0,��
2019/01/20,13:30,0.800,1.183,0.833,1.522,1.089,0.459,0.806,0.762,�k,6.8,��
2019/01/20,13:40,0.800,1.179,0.834,1.521,1.089,0.458,0.804,0.760,�k,7.4,��
2019/01/20,13:50,0.797,1.180,0.832,1.521,1.089,0.457,0.804,0.757,�k,6.1,��
2019/01/20,14:00,0.799,1.183,0.834,1.525,1.089,0.459,0.804,0.757,�k,6.0,��
2019/01/20,14:10,0.800,1.184,0.833,1.522,1.091,0.456,0.805,0.760,�k,5.8,��
2019/01/20,14:20,0.800,1.184,0.834,1.523,1.091,0.458,0.804,0.758,�k,5.4,��
2019/01/20,14:30,0.798,1.185,0.831,1.522,1.092,0.457,0.805,0.759,�k,5.1,��
2019/01/20,14:40,0.800,1.182,0.834,1.520,1.092,0.458,0.802,0.761,�k,5.3,��
2019/01/20,14:50,0.801,1.184,0.832,1.521,1.089,0.456,0.807,0.761,�k�k��,5.3,��
2019/01/20,15:00,0.799,1.185,0.834,1.521,1.091,0.457,0.806,0.761,�k,5.7,��
2019/01/20,15:10,0.800,1.185,0.835,1.521,1.093,0.456,0.805,0.761,�k,5.4,��
2019/01/20,15:20,0.799,1.185,0.834,1.525,1.089,0.458,0.805,0.761,�k,5.3,��
2019/01/20,15:30,0.799,1.186,0.833,1.520,1.091,0.459,0.806,0.760,�k,6.1,��
2019/01/20,15:40,0.799,1.185,0.831,1.522,1.091,0.457,0.807,0.761,�k,5.9,��
2019/01/20,15:50,0.799,1.183,0.834,1.521,1.090,0.456,0.806,0.762,�k,6.3,��
2019/01/20,16:00,0.800,1.184,0.833,1.523,1.090,0.456,0.805,0.760,�k,6.6,��
2019/01/20,16:10,0.800,1.184,0.833,1.522,1.090,0.456,0.807,0.761,�k,7.0,��
2019/01/20,16:20,0.799,1.182,0.834,1.521,1.089,0.457,0.806,0.761,�k�k��,6.5,��
2019/01/20,16:30,0.800,1.184,0.834,1.522,1.090,0.455,0.807,0.762,�k�k��,5.3,��
2019/01/20,16:40,0.799,1.182,0.834,1.522,1.087,0.456,0.806,0.760,�k�k��,4.0,��
2019/01/20,16:50,0.798,1.183,0.835,1.519,1.089,0.458,0.808,0.761,�k��,4.7,��
2019/01/20,17:00,0.800,1.184,0.834,1.521,1.089,0.456,0.808,0.758,�k��,6.3,��
2019/01/20,17:10,0.798,1.184,0.832,1.523,1.090,0.456,0.806,0.760,�k��,8.3,��
2019/01/20,17:20,0.797,1.185,0.831,1.522,1.091,0.456,0.807,0.760,���k��,7.7,��
2019/01/20,17:30,0.798,1.181,0.833,1.522,1.089,0.454,0.806,0.762,���k��,6.6,��
2019/01/20,17:40,0.798,1.181,0.832,1.521,1.089,0.456,0.805,0.761,���k��,5.5,��
2019/01/20,17:50,0.799,1.183,0.834,1.521,1.087,0.457,0.806,0.760,��,2.6,��
2019/01/20,18:00,0.799,1.180,0.831,1.521,1.088,0.456,0.807,0.760,���k��,0.6,��
2019/01/20,18:10,0.798,1.183,0.832,1.518,1.090,0.454,0.807,0.758,�k��,1.5,��
2019/01/20,18:20,0.796,1.182,0.832,1.521,1.089,0.456,0.806,0.760,�k,1.4,��
2019/01/20,18:30,0.798,1.180,0.831,1.521,1.089,0.456,0.806,0.761,�k,1.2,��
2019/01/20,18:40,0.797,1.184,0.831,1.518,1.087,0.456,0.805,0.760,-,CALM,��
2019/01/20,18:50,0.796,1.181,0.832,1.521,1.087,0.456,0.805,0.761,��,2.8,��
2019/01/20,19:00,0.797,1.181,0.832,1.521,1.087,0.455,0.805,0.759,��,3.6,��
2019/01/20,19:10,0.797,1.180,0.833,1.522,1.087,0.455,0.805,0.759,���쐼,1.7,��
2019/01/20,19:20,0.797,1.181,0.831,1.518,1.089,0.455,0.806,0.761,�k��,2.5,��
2019/01/20,19:30,0.796,1.182,0.832,1.520,1.086,0.454,0.804,0.759,�k��,4.8,��
2019/01/20,19:40,0.797,1.183,0.832,1.520,1.086,0.454,0.805,0.760,���k��,5.0,��
2019/01/20,19:50,0.797,1.180,0.833,1.519,1.088,0.454,0.805,0.758,���k��,7.6,��
2019/01/20,20:00,0.798,1.182,0.832,1.521,1.090,0.454,0.806,0.759,���k��,9.8,��
2019/01/20,20:10,0.799,1.183,0.831,1.518,1.087,0.455,0.805,0.759,���k��,8.2,��
2019/01/20,20:20,0.797,1.182,0.831,1.522,1.088,0.457,0.805,0.760,���k��,7.8,��
2019/01/20,20:30,0.798,1.180,0.829,1.521,1.088,0.454,0.805,0.760,���k��,7.6,��
2019/01/20,20:40,0.797,1.184,0.832,1.521,1.087,0.455,0.805,0.758,���k��,7.2,��
2019/01/20,20:50,0.799,1.180,0.830,1.522,1.088,0.456,0.805,0.761,�k��,8.0,��
2019/01/20,21:00,0.798,1.184,0.834,1.520,1.090,0.455,0.805,0.760,���k��,8.5,��
2019/01/20,21:10,0.797,1.182,0.834,1.523,1.087,0.454,0.803,0.760,���k��,9.0,��
2019/01/20,21:20,0.796,1.183,0.833,1.520,1.088,0.454,0.804,0.760,�k��,8.2,��
2019/01/20,21:30,0.797,1.183,0.830,1.523,1.087,0.454,0.806,0.759,�k��,10.0,��
2019/01/20,21:40,0.797,1.181,0.832,1.523,1.088,0.455,0.807,0.760,�k��,8.8,��
2019/01/20,21:50,0.796,1.181,0.831,1.522,1.088,0.454,0.807,0.759,�k��,7.2,��
2019/01/20,22:00,0.797,1.181,0.829,1.524,1.090,0.455,0.806,0.761,�k��,7.8,��
2019/01/20,22:10,0.796,1.181,0.830,1.522,1.089,0.455,0.805,0.759,�k��,9.4,��
2019/01/20,22:20,0.795,1.179,0.829,1.523,1.088,0.456,0.804,0.759,�k��,6.8,��
2019/01/20,22:30,0.795,1.182,0.830,1.521,1.088,0.456,0.808,0.759,�k��,6.5,��
2019/01/20,22:40,0.797,1.182,0.832,1.521,1.089,0.455,0.806,0.759,���k��,9.3,�L
2019/01/20,22:50,0.797,1.180,0.830,1.524,1.090,0.454,0.805,0.761,���k��,8.2,��
2019/01/20,23:00,0.797,1.182,0.830,1.522,1.090,0.455,0.805,0.759,�k��,8.0,�L
2019/01/20,23:10,0.795,1.185,0.833,1.522,1.087,0.456,0.805,0.758,���k��,5.8,�L
2019/01/20,23:20,0.798,1.185,0.834,1.520,1.089,0.455,0.806,0.759,���k��,5.4,�L
2019/01/20,23:30,0.799,1.184,0.832,1.523,1.089,0.456,0.804,0.760,�k��,5.7,�L
2019/01/20,23:40,0.795,1.184,0.832,1.523,1.089,0.456,0.806,0.760,�k��,4.5,��
2019/01/20,23:50,0.796,1.182,0.830,1.523,1.088,0.455,0.805,0.761,�k�k��,4.5,��
